#timestamp,LO_Frequency,Hit,StdDev 
1560945615.1,286046995.6,N
1560945616.0,286046995.6,N
1560945635.8,286046997.8,N
1560945655.7,286046996.8,N
1560945675.5,286046998.8,N
1560945695.3,286046999.2,N
1560945715.2,286046998.1,N
1560945735.9,286047001.0,N
1560945755.7,286046999.9,N
1560945775.6,286047002.3,N
1560945795.4,286047004.4,N
1560945815.2,286047004.3,N
1560945835.1,286046999.9,N
1560945836.0,286046999.9,N
1560945855.8,286047000.5,N
1560945875.6,286047002.4,N
1560945895.5,286047004.2,N
1560945915.3,286047001.8,N
1560945935.1,286047002.1,N
1560945955.9,286047004.4,N
1560945975.7,286047001.6,N
1560945995.5,286047001.8,N
1560946015.4,286047002.5,N
1560946035.2,286047000.3,N
1560946055.0,286047000.1,N
1560946055.9,286047000.1,N
1560946075.8,286046998.1,N
1560946095.6,286046998.1,N
1560946115.4,286046998.9,N
1560946135.3,286046998.1,N
1560946155.1,286047000.8,N
1560946175.9,286046999.1,N
1560946195.7,286046998.4,N
1560946215.5,286047000.8,N
1560946235.4,286047000.6,N
1560946255.2,286046998.1,N
1560946275.0,286047000.7,N
1560946275.9,286047000.7,N
1560946295.8,286047000.5,N
1560946315.6,286047001.1,N
1560946335.4,286046998.3,N
1560946355.3,286046998.3,N
1560946375.1,286047000.8,N
1560946376.0,286047000.8,N
1560946395.8,286047001.0,N
1560946415.7,286046999.8,N
1560946435.5,286047001.8,N
1560946455.3,286047000.3,N
1560946475.2,286046998.5,N
1560946495.9,286046996.5,N
1560946515.7,286046996.3,N
1560946535.6,286046995.2,Y
1560946555.4,286046994.2,P
1560946575.2,286046992.6,N
1560946595.1,286046990.8,P
1560946596.0,286046990.8,N
1560946615.8,286046991.0,N
1560946635.6,286046990.8,N
1560946655.5,286046990.7,Y
1560946675.3,286046998.9,P
1560946695.1,286046998.9,N
1560946715.9,286047000.2,N
1560946735.7,286046998.7,N
1560946755.5,286046999.0,N
1560946775.4,286046995.0,N
1560946795.2,286046998.0,N
1560946815.0,286046999.2,N
1560946815.9,286046999.2,N
1560946835.8,286046999.4,N
1560946855.6,286046996.6,N
1560946875.4,286046998.4,N
1560946895.3,286046998.7,N
1560946915.1,286046998.7,N
1560946935.8,286047000.8,N
1560946955.7,286047000.7,N
1560946975.5,286047002.8,N
1560946995.3,286046999.9,N
1560947015.2,286047000.2,N
1560947035.0,286046999.7,N
1560947035.9,286046999.7,N
1560947055.7,286047000.3,N
1560947075.6,286047002.5,N
1560947095.4,286046999.8,N
1560947115.2,286047000.1,N
1560947135.1,286047001.9,N
1560947136.0,286047001.9,N
1560947155.8,286047002.4,N
1560947175.6,286047001.6,N
1560947195.5,286047002.7,N
1560947215.3,286047002.3,N
1560947235.1,286047003.9,N
1560947255.9,286047006.0,Y
1560947275.7,286047001.4,P
1560947295.6,286047004.2,P
1560947315.4,286047004.2,N
1560947335.2,286047004.3,N
1560947355.1,286047005.9,Y
1560947356.0,286047005.9,P
1560947375.8,286047002.8,N
1560947395.6,286047000.8,N
1560947415.5,286047000.4,N
1560947435.3,286047001.0,N
1560947455.1,286047001.0,N
1560947475.9,286047000.8,N
1560947495.7,286046999.2,N
1560947515.5,286046997.1,N
1560947535.4,286046999.5,N
1560947555.2,286046997.0,N
1560947575.0,286046998.9,N
1560947575.9,286046998.9,N
1560947595.8,286047000.7,N
1560947615.6,286046999.3,N
1560947635.4,286046997.1,N
1560947655.3,286046997.7,N
1560947675.1,286046999.4,N
1560947676.0,286046999.4,N
1560947695.8,286046998.7,N
1560947715.7,286047001.1,N
1560947735.5,286047001.9,N
1560947755.3,286047000.1,N
1560947775.2,286047000.6,N
1560947795.9,286047000.3,N
1560947815.7,286047000.2,N
1560947835.6,286047000.1,N
1560947855.4,286047000.4,N
1560947875.2,286047000.7,N
1560947895.1,286046999.1,N
1560947896.0,286046999.1,N
1560947915.8,286046998.3,N
1560947935.6,286046996.6,N
1560947955.5,286046998.3,N
1560947975.3,286046998.1,N
1560947995.1,286047001.1,N
1560948015.9,286047000.6,N
1560948035.7,286047002.5,N
1560948055.5,286047000.7,N
1560948075.4,286046996.5,N
1560948095.2,286046996.6,N
1560948115.0,286046999.2,N
1560948115.9,286046999.2,N
1560948135.8,286046999.8,N
1560948155.6,286047001.6,N
1560948175.4,286047006.0,Y
1560948195.3,286047008.6,P
1560948215.1,286047008.6,N
1560948235.8,286047007.9,N
1560948255.7,286047010.8,N
1560948275.5,286047009.3,N
1560948295.3,286047012.8,Y
1560948315.2,286047006.2,P
1560948335.0,286047006.8,P
1560948335.9,286047006.8,P
1560948355.8,286047007.3,Y
1560948375.6,286047002.3,P
1560948395.4,286047001.9,N
1560948415.3,286047004.2,N
1560948435.1,286047000.1,N
1560948436.0,286047000.1,N
1560948455.8,286046997.2,N
1560948475.7,286046993.8,N
1560948495.5,286046994.8,N
1560948515.3,286046992.7,N
1560948535.2,286046990.7,N
1560948555.9,286046992.7,N
1560948575.7,286046988.5,N
1560948595.6,286046987.1,N
1560948615.4,286046986.3,N
1560948635.2,286046984.0,N
1560948655.1,286046983.1,N
1560948656.0,286046983.1,N
1560948675.8,286046981.8,N
1560948695.6,286046982.0,N
1560948715.5,286046980.0,N
1560948735.3,286046979.3,N
1560948755.1,286046981.9,N
1560948775.9,286046979.3,N
1560948795.7,286046981.0,N
1560948815.5,286046980.5,N
1560948835.4,286046983.1,N
1560948855.2,286046983.4,N
1560948875.0,286046983.1,N
1560948875.9,286046983.1,N
1560948895.8,286046982.2,N
1560948915.6,286046981.4,N
1560948935.4,286046979.2,N
1560948955.3,286046980.2,N
1560948975.1,286046978.9,Y
1560948976.0,286046978.9,P
1560948995.8,286046996.2,N
1560949015.7,286046994.9,N
1560949035.5,286046993.7,N
1560949055.3,286046995.8,N
1560949075.2,286046995.0,N
1560949095.9,286046997.2,N
1560949115.7,286046997.9,N
1560949135.6,286046997.3,N
1560949155.4,286046999.6,N
1560949175.2,286046998.6,N
1560949195.1,286046999.4,N
1560949196.0,286046999.4,N
